[[{"header":{"parameterUnit":"m.s-1","parameterCategory":1,"la1":30.2991,"la2":30.254,"lo1":-89.0895,"lo2":-89.0444,"dy":0.0017,"dx":0.0017,"nx":28,"ny":28,"refTime":"2024-12-13T09:00:00:Z","depth":0,"parameterNumber":2,"parameterNumberName":"U-component_of_WINDS"},"data":[0,0,0,0,0,0,0,0,0,0,0,0,0,0,0,0,0,0,0,0,0,0,0,0,0,0,0,0,0,0,0,0,0,0,0,0,0,0,0,0,0,0,0,0,0,0,0,0,0,0,0,0,0,0,0,0,0,0,-5.2103,-5.2102,0,-5.2044,-5.2044,-5.2043,-5.1854,-5.1849,-5.1845,-5.1841,-5.1787,-5.1789,-5.1792,0,0,0,0,0,0,0,0,0,0,0,0,0,-5.2057,-5.2058,-5.2103,-5.2102,-5.2102,-5.2045,-5.2044,-5.2043,-5.1854,-5.1849,-5.1844,-5.1839,-5.1786,-5.1789,-5.1792,0,0,0,0,0,0,0,0,0,0,0,0,0,-5.2046,-5.2059,-5.2103,-5.2,-5.1991,-5.2045,-5.2044,-5.2043,-5.1855,-5.1849,-5.1843,-5.1837,-5.1785,-5.1788,-5.1792,-5.1942,0,0,-5.1804,-5.1805,0,0,0,0,0,0,0,0,-5.2047,-5.2048,-5.2016,-5.2008,-5.1997,-5.195,-5.2007,-5.2009,-5.1857,-5.1907,-5.1841,-5.1834,-5.1846,-5.1845,-5.1848,-5.194,-5.1938,-5.1804,-5.1806,-5.1808,-5.1809,0,0,0,0,0,0,0,-5.2048,-5.2049,-5.208,-5.2016,-5.2004,-5.1959,-5.195,-5.2007,-5.1913,-5.1902,-5.1888,-5.1884,-5.184,-5.1845,-5.1845,-5.1937,-5.1804,-5.1807,-5.1809,-5.1811,-5.215,-5.2156,0,0,0,0,0,0,-5.2062,-5.2051,-5.2082,-5.2078,-5.2006,-5.1965,-5.1955,-5.1971,-5.1912,-5.1897,-5.1889,-5.1875,-5.1841,-5.1841,-5.1843,-5.2015,-5.1808,-5.1811,-5.1813,-5.2143,-5.2152,-5.2159,0,0,0,0,0,0,-5.2062,-5.2067,-5.2084,-5.2061,-5.2059,-5.1972,-5.1992,-5.1974,-5.1978,-5.1902,-5.1885,-5.1911,-5.1836,-5.1837,-5.1919,-5.201,-5.1813,-5.1816,-5.2135,-5.2146,-5.2155,-5.2361,0,0,0,0,0,0,-5.2061,-5.2068,-5.2123,-5.2063,-5.2061,-5.216,-5.1998,-5.1977,-5.1984,-5.1965,-5.1918,-5.1904,-5.1831,-5.1914,-5.1923,-5.2012,-5.1819,-5.2127,-5.214,-5.2152,-5.2345,-5.2377,-5.2403,0,0,0,0,0,-5.206,-5.2184,-5.2126,-5.2131,-5.2128,-5.2166,-5.2165,-5.2077,-5.1992,-5.2048,-5.1999,-5.1906,-5.1999,-5.1924,-5.1932,-5.2024,-5.2121,-5.2136,-5.2151,-5.2332,-5.2371,-5.2403,0,0,0,0,0,0,-5.2258,-5.2174,-5.211,-5.2217,-5.22,-5.2134,-5.2201,-5.2121,-5.2128,-5.2111,-5.2003,-5.1994,-5.2091,-5.2065,-5.1984,-5.2166,-5.2044,-5.2062,-5.218,-5.2215,-5.2244,-5.2248,-5.1822,0,0,0,0,0,-5.2314,-5.235,-5.2275,-5.2378,-5.2372,-5.2289,-5.2302,-5.2236,-5.2214,-5.2207,-5.2164,-5.2148,-5.2174,-5.2193,-5.2212,-5.2341,-5.2328,-5.2408,-5.2437,-5.2461,-5.2478,-5.2545,-5.2579,-5.2209,-5.2209,-5.2208,0,0,-5.243,-5.2389,-5.2418,-5.2417,-5.2395,-5.2437,-5.2284,-5.2334,-5.2364,-5.2215,-5.2288,-5.2257,-5.2233,-5.2339,-5.2383,-5.232,-5.2577,-5.2481,-5.25,-5.2504,-5.2564,-5.2599,-5.263,-5.2219,-5.2217,-5.2216,0,0,-5.2663,-5.2635,-5.2717,-5.2699,-5.2668,-5.2612,-5.2632,-5.2578,-5.2551,-5.2623,-5.2512,-5.2548,-5.2594,-5.2581,-5.2581,-5.281,-5.2725,-5.282,-5.2971,-5.3038,-5.3067,-5.3092,-5.3175,-5.3206,-5.2836,-5.2837,-5.2837,0,-5.2812,-5.2868,-5.277,-5.2827,-5.283,-5.2696,-5.2779,-5.2767,-5.2746,-5.2752,-5.2681,-5.2736,-5.271,-5.2811,-5.2868,-5.2872,-5.2892,-5.2824,-5.307,-5.3095,-5.3117,-5.3194,-5.3226,-5.2849,-5.2847,-5.2846,-5.2845,0,-5.3053,-5.3094,-5.3164,-5.3145,-5.3156,-5.3226,-5.3141,-5.3164,-5.3098,-5.305,-5.3126,-5.309,-5.31,-5.3119,-5.3056,-5.3213,-5.3174,-5.3089,-5.2964,-5.3166,-5.3237,-5.3266,-5.2865,-5.2861,-5.2858,-5.2855,0,0,-5.3408,-5.3333,-5.3361,-5.3351,-5.3308,-5.3338,-5.3404,-5.3412,-5.3434,-5.3425,-5.3477,-5.352,-5.3441,-5.3441,-5.3374,-5.3433,-5.3618,-5.334,-5.3337,-5.3393,-5.379,-5.3854,-5.389,-5.3561,-5.3566,-5.357,-5.3792,0,-5.3628,-5.3733,-5.3648,-5.3769,-5.3806,-5.368,-5.3736,-5.3718,-5.3675,-5.3702,-5.3655,-5.3687,-5.358,-5.3579,-5.3631,-5.3584,-5.3696,-5.3567,-5.3611,-5.3613,-5.3621,-5.3927,-5.3995,-5.4206,-5.3819,-5.3823,-5.3827,0,-5.3899,-5.39,-5.4026,-5.3974,-5.3987,-5.404,-5.404,-5.4067,-5.4044,-5.4009,-5.401,-5.3928,-5.399,-5.3868,-5.3953,-5.3867,-5.388,-5.3861,-5.3866,-5.3867,-5.3732,-5.3937,-5.4271,-5.4303,-5.3869,-5.3866,-5.3863,0,-5.4146,-5.4179,-5.4258,-5.4253,-5.4196,-5.4236,-5.4214,-5.4184,-5.4195,-5.4197,-5.4203,-5.4213,-5.4219,-5.4229,-5.4153,-5.4071,-5.4249,-5.412,-5.4223,-5.4225,-5.4266,-5.4264,-5.4607,-5.4275,-5.4274,-5.4274,-5.4273,0,-5.4402,-5.4483,-5.4368,-5.4417,-5.4505,-5.4407,-5.4498,-5.4463,-5.4438,-5.4479,-5.4371,-5.4412,-5.4309,-5.434,-5.4281,-5.4361,-5.4365,-5.4339,-5.4323,-5.4349,-5.4353,-5.4356,-5.434,-5.4282,-5.428,-5.4279,-5.4277,0,-5.4692,-5.4618,-5.4695,-5.4635,-5.4621,-5.4689,-5.4638,-5.4682,-5.4632,-5.4686,-5.4693,-5.4616,-5.4647,-5.4572,-5.4593,-5.4553,-5.4668,-5.4628,-5.4676,-5.4664,-5.477,-5.4762,-5.5128,-5.5171,-5.4812,-5.4815,-5.4818,0,-5.4859,-5.4919,-5.4865,-5.4883,-5.4867,-5.4899,-5.4909,-5.4816,-5.4832,-5.481,-5.4857,-5.4879,-5.4891,-5.4948,-5.4895,-5.4911,-5.487,-5.4998,-5.4872,-5.4897,-5.4873,-5.487,-5.4876,-5.5024,-5.5028,-5.5032,-5.5035,0,-5.5165,-5.5125,-5.5143,-5.5149,-5.5164,-5.5164,-5.5157,-5.5179,-5.508,-5.5103,-5.5133,-5.5143,-5.5164,-5.5188,-5.5191,-5.5171,-5.5088,-5.5075,-5.5099,-5.5127,-5.5152,-5.514,-5.4746,-5.5067,-5.5063,-5.5061,-5.5059,-5.5058,-5.5399,-5.5446,-5.5415,-5.5439,-5.5423,-5.542,-5.5458,-5.5413,-5.5435,-5.5444,-5.5388,-5.5431,-5.5407,-5.5403,-5.5392,-5.5425,-5.5367,-5.5403,-5.5412,-5.5422,-5.544,-5.5147,-5.5425,-5.5424,-5.5423,-5.5422,-5.5422,0,-5.5698,-5.5672,-5.5695,-5.5688,-5.5708,-5.5626,-5.5614,-5.5637,-5.5675,-5.5659,-5.5673,-5.5709,-5.5731,-5.5681,-5.5696,-5.5733,-5.5695,-5.574,-5.5736,-5.5733,-5.549,-5.5467,-5.577,-5.577,-5.577,-5.577,-5.577,-5.577,-5.5857,-5.5932,-5.589,-5.5958,-5.5931,-5.597,-5.5971,-5.5968,-5.5955,-5.5998,-5.6016,-5.5982,-5.5953,-5.5966,-5.5984,-5.5968,-5.598,-5.6038,-5.601,-5.5784,-5.575,-5.5718,-5.5696,-5.6041,-5.6042,-5.625,-5.6252,-5.6253]},{"header":{"parameterUnit":"m.s-1","parameterCategory":1,"la1":30.2991,"la2":30.254,"lo1":-89.0895,"lo2":-89.0444,"dy":0.0017,"dx":0.0017,"nx":28,"ny":28,"refTime":"2024-12-13T09:00:00:Z","depth":0,"parameterNumber":3,"parameterNumberName":"V-component_of_WINDS"},"data":[0,0,0,0,0,0,0,0,0,0,0,0,0,0,0,0,0,0,0,0,0,0,0,0,0,0,0,0,0,0,0,0,0,0,0,0,0,0,0,0,0,0,0,0,0,0,0,0,0,0,0,0,0,0,0,0,0,0,-1.3475,-1.3475,0,-1.346,-1.346,-1.346,-1.3476,-1.3477,-1.3477,-1.3478,-1.3461,-1.346,-1.3459,0,0,0,0,0,0,0,0,0,0,0,0,0,-1.3515,-1.3514,-1.3475,-1.3475,-1.3475,-1.346,-1.346,-1.3459,-1.3476,-1.3477,-1.3477,-1.3478,-1.3462,-1.346,-1.3459,0,0,0,0,0,0,0,0,0,0,0,0,0,-1.3498,-1.3514,-1.3475,-1.3481,-1.3481,-1.346,-1.346,-1.3459,-1.3476,-1.3477,-1.3478,-1.3478,-1.3462,-1.346,-1.3459,-1.343,0,0,-1.3454,-1.3454,0,0,0,0,0,0,0,0,-1.3499,-1.3497,-1.348,-1.3481,-1.3481,-1.3471,-1.3468,-1.345,-1.3475,-1.3478,-1.3478,-1.3479,-1.3464,-1.3462,-1.3457,-1.343,-1.3429,-1.3454,-1.3453,-1.3453,-1.3452,0,0,0,0,0,0,0,-1.35,-1.3498,-1.3469,-1.348,-1.348,-1.3483,-1.3482,-1.3464,-1.3466,-1.3478,-1.3479,-1.3477,-1.3464,-1.3458,-1.3457,-1.3429,-1.3454,-1.3453,-1.3452,-1.3451,-1.3373,-1.3372,0,0,0,0,0,0,-1.3501,-1.3499,-1.3469,-1.3469,-1.3493,-1.3482,-1.3481,-1.3473,-1.3466,-1.3466,-1.3476,-1.3478,-1.3461,-1.3459,-1.3456,-1.342,-1.3453,-1.3451,-1.345,-1.3374,-1.3373,-1.3372,0,0,0,0,0,0,-1.3502,-1.3498,-1.347,-1.3484,-1.348,-1.348,-1.3472,-1.3472,-1.3467,-1.3465,-1.3465,-1.347,-1.3461,-1.3458,-1.3436,-1.3419,-1.345,-1.3449,-1.3376,-1.3374,-1.3372,-1.3348,0,0,0,0,0,0,-1.3503,-1.3499,-1.3489,-1.3483,-1.348,-1.3451,-1.3471,-1.3471,-1.3464,-1.3466,-1.3459,-1.3459,-1.3462,-1.3438,-1.3434,-1.3418,-1.3448,-1.3377,-1.3375,-1.3373,-1.335,-1.3345,-1.3341,0,0,0,0,0,-1.3504,-1.3483,-1.3488,-1.3485,-1.3467,-1.345,-1.3448,-1.3452,-1.3463,-1.3452,-1.345,-1.3459,-1.3422,-1.3436,-1.3432,-1.3414,-1.3378,-1.3376,-1.3373,-1.3352,-1.3346,-1.3341,0,0,0,0,0,0,-1.3486,-1.3482,-1.3488,-1.3464,-1.3457,-1.3453,-1.3439,-1.3446,-1.3435,-1.3438,-1.3443,-1.3441,-1.3416,-1.3414,-1.3429,-1.3384,-1.3402,-1.3398,-1.3387,-1.3382,-1.3377,-1.3378,-1.3446,0,0,0,0,0,-1.348,-1.3467,-1.3464,-1.3443,-1.3439,-1.344,-1.3432,-1.3436,-1.3429,-1.3426,-1.3422,-1.3414,-1.34,-1.3391,-1.3379,-1.335,-1.3347,-1.3336,-1.3332,-1.3328,-1.3324,-1.3305,-1.3299,-1.3363,-1.3363,-1.3363,0,0,-1.3466,-1.3462,-1.3453,-1.3439,-1.3434,-1.3419,-1.3437,-1.3421,-1.3409,-1.3423,-1.3401,-1.3398,-1.3389,-1.3362,-1.3351,-1.3359,-1.3306,-1.3325,-1.3322,-1.332,-1.3302,-1.3296,-1.3291,-1.3362,-1.3362,-1.3362,0,0,-1.3432,-1.3429,-1.3409,-1.3403,-1.3395,-1.3396,-1.3391,-1.3385,-1.3383,-1.3361,-1.337,-1.3356,-1.3333,-1.3325,-1.3318,-1.3278,-1.3285,-1.3274,-1.3251,-1.3233,-1.3228,-1.3223,-1.3206,-1.32,-1.3271,-1.3271,-1.3271,0,-1.3415,-1.3393,-1.3399,-1.3381,-1.3373,-1.3385,-1.3364,-1.3358,-1.3346,-1.334,-1.335,-1.3319,-1.3314,-1.3284,-1.3274,-1.3269,-1.3262,-1.3275,-1.3228,-1.3224,-1.3219,-1.3203,-1.3197,-1.327,-1.327,-1.327,-1.327,0,-1.3371,-1.3356,-1.3342,-1.3329,-1.332,-1.3301,-1.3302,-1.3292,-1.3295,-1.3294,-1.3269,-1.3264,-1.3249,-1.3242,-1.3247,-1.3212,-1.3217,-1.3228,-1.3245,-1.3212,-1.3196,-1.319,-1.3267,-1.3268,-1.3268,-1.3269,0,0,-1.3326,-1.3315,-1.3309,-1.3302,-1.3293,-1.3281,-1.3261,-1.3246,-1.3236,-1.3227,-1.3209,-1.3188,-1.3197,-1.3189,-1.3192,-1.3176,-1.3141,-1.3188,-1.3188,-1.3177,-1.3099,-1.3089,-1.3082,-1.3146,-1.3145,-1.3144,-1.3098,0,-1.3289,-1.3256,-1.3259,-1.3227,-1.3211,-1.322,-1.3203,-1.3194,-1.3192,-1.3177,-1.3175,-1.3158,-1.3173,-1.3168,-1.3153,-1.3149,-1.3125,-1.3152,-1.3127,-1.3126,-1.3126,-1.3074,-1.3064,-1.3021,-1.3093,-1.3092,-1.3091,0,-1.3243,-1.3231,-1.3197,-1.3187,-1.318,-1.3165,-1.315,-1.3136,-1.3126,-1.3125,-1.3115,-1.312,-1.3098,-1.3117,-1.3085,-1.3104,-1.3094,-1.309,-1.3088,-1.3084,-1.3105,-1.3066,-1.3008,-1.3001,-1.3082,-1.3083,-1.3083,0,-1.3209,-1.3185,-1.316,-1.3155,-1.3144,-1.3132,-1.3126,-1.3117,-1.3107,-1.3094,-1.3086,-1.3071,-1.3062,-1.3049,-1.3048,-1.3063,-1.3015,-1.3035,-1.3012,-1.3011,-1.3,-1.3,-1.2937,-1.2998,-1.2998,-1.2998,-1.2998,0,-1.3167,-1.3145,-1.3145,-1.3129,-1.3104,-1.3107,-1.3081,-1.3077,-1.3068,-1.3051,-1.3059,-1.3042,-1.3044,-1.3027,-1.3027,-1.2998,-1.2995,-1.2992,-1.2992,-1.299,-1.299,-1.2982,-1.2983,-1.2996,-1.2997,-1.2997,-1.2997,0,-1.3125,-1.3124,-1.3097,-1.3089,-1.3086,-1.3067,-1.3059,-1.3043,-1.3041,-1.3019,-1.3014,-1.301,-1.2989,-1.2988,-1.2965,-1.2965,-1.2929,-1.2934,-1.2933,-1.2932,-1.2908,-1.2909,-1.2835,-1.2824,-1.2895,-1.2894,-1.2894,0,-1.3097,-1.3079,-1.3068,-1.3057,-1.3051,-1.3033,-1.3022,-1.3024,-1.3012,-1.2997,-1.2983,-1.2963,-1.2947,-1.2914,-1.2908,-1.289,-1.2892,-1.2867,-1.2889,-1.2886,-1.2887,-1.2887,-1.2884,-1.2862,-1.2861,-1.2861,-1.286,0,-1.3045,-1.3045,-1.303,-1.3013,-1.3,-1.2987,-1.2975,-1.2965,-1.2965,-1.2951,-1.293,-1.2917,-1.2893,-1.2872,-1.2853,-1.2846,-1.2852,-1.2854,-1.2847,-1.2843,-1.2842,-1.2839,-1.2918,-1.2855,-1.2855,-1.2856,-1.2856,-1.2856,-1.3007,-1.2991,-1.298,-1.2962,-1.2952,-1.294,-1.2924,-1.2919,-1.2902,-1.2882,-1.2884,-1.2859,-1.2847,-1.2822,-1.2813,-1.2793,-1.2801,-1.2792,-1.2789,-1.2786,-1.2782,-1.2847,-1.279,-1.279,-1.2791,-1.2791,-1.2791,0,-1.2954,-1.2947,-1.293,-1.2912,-1.2896,-1.2904,-1.289,-1.2876,-1.2855,-1.2843,-1.2827,-1.28,-1.278,-1.2772,-1.2751,-1.2736,-1.2738,-1.273,-1.273,-1.2727,-1.2778,-1.2784,-1.2729,-1.2729,-1.2729,-1.2729,-1.2729,-1.2729,-1.2925,-1.2897,-1.2895,-1.2861,-1.2854,-1.2831,-1.2821,-1.2809,-1.2799,-1.277,-1.2752,-1.2747,-1.2736,-1.2713,-1.2694,-1.2692,-1.2682,-1.2673,-1.2671,-1.2718,-1.2724,-1.273,-1.2736,-1.2671,-1.2671,-1.2622,-1.2622,-1.2621]}]]